Regional & State Weather Roundups


636 
ASUS41 KLWX 281810
RWRLWX
REGIONAL WEATHER ROUNDUP
NATIONAL WEATHER SERVICE BALTIMORE MD/WASHINGTON DC
200 PM EDT SUN AUG 28 2016
Note: "FAIR" indicates few or no clouds below 12,000 feet
with no significant weather and/or obstructions to visibility.
 TC=TEMPERATURE CELSIUS
 * =Non NWS site. Station does not report precipitation (e.g. rain,
    snow, etc.), thunder, or fog.
DCZ001-MDZ009-015-VAZ040>042-051-053>054-281900-
WASHINGTON METRO
  
CITY           SKY/WX    TMP DP  RH WIND       PRES   REMARKS
WASHINGTON NAT MOSUNNY   88  63  43 CALM      30.22F                  
DULLES         MOSUNNY   88  64  44 SE6       30.23S                  
ANDREWS AFB    SUNNY     86  62  43 E5        30.23S                  
FT BELVOIR     SUNNY     87  66  50 SE5       30.22F                  
QUANTICO       SUNNY     87  67  51 E6        30.23F HX  90           
COLLEGE PARK*  SUNNY     86  59  39 SE5       30.22F                  
LEESBURG*      MOSUNNY   88  68  51 E5        30.24F HX  91           
MANASSAS*      SUNNY     88  68  51 S5        30.23F HX  91           
GAITHERSBURG*  SUNNY     84  66  54 SE3       30.28S                  
$$
MDZ006>007-011-014-281900-
BALTIMORE METRO
  
CITY           SKY/WX    TMP DP  RH WIND       PRES   REMARKS
BWI AIRPORT    MOSUNNY   86  60  41 E8        30.23S                  
MD SCIENCE CTR   N/A     85  64  49 MISG      30.24S                  
MARTIN STATE   MOSUNNY   84  72  65 SE7       30.25S                  
ANNAPOLIS      SUNNY     84  68  58 CALM      30.23S                  
FORT MEADE*    SUNNY    N/A N/A N/A E6        30.26S                  
$$
MDZ012-015-019>023-281900-
MARYLAND EASTERN SHORE
  
CITY           SKY/WX    TMP DP  RH WIND       PRES   REMARKS
OCEAN CITY     SUNNY     83  68  60 E10       30.23S                  
SALISBURY      SUNNY     86  63  45 E12       30.22S                  
BAY BRIDGE AP* CLOUDY    88  68  51 MISG      30.23S HX  91           
CAMBRIDGE*     SUNNY     86  64  48 SE7       30.22S                  
EASTON*        MOSUNNY   90  72  55 E10       30.26F HX  96           
$$
MDZ017>025-281900-
SOUTHERN MARYLAND
  
CITY           SKY/WX    TMP DP  RH WIND       PRES   REMARKS
PATUXENT RIVER MOSUNNY   84  67  56 E6        30.22F                  
ST INIGOES     SUNNY     85  67  54 N8        30.21F                  
LEONARDTOWN*   SUNNY     82  64  54 NE6       30.24F                  
$$
MDZ003>005-281900-
NORTH CENTRAL MARYLAND
  
CITY           SKY/WX    TMP DP  RH WIND       PRES   REMARKS
FREDERICK*     NOT AVBL                                               
HAGERSTOWN APT SUNNY     87  62  43 SW9       30.23F                  
$$
MDZ501>502-281900-
WESTERN MARYLAND
  
CITY           SKY/WX    TMP DP  RH WIND       PRES   REMARKS
OAKLAND*       CLOUDY    79  68  69 CALM      30.33F                  
CUMBERLAND*    SUNNY     90  68  48 SE3       30.25F HX  93           
$$
VAZ025>031-281900-
SHENANDOAH VALLEY
  
CITY           SKY/WX    TMP DP  RH WIND       PRES   REMARKS
WINCHESTER*    SUNNY     88  61  40 S6        30.23F                  
FRONT ROYAL*   FAIR      88  66  48 CALM      30.23S HX  90           
LURAY*         FAIR      88  57  35 CALM      30.24S                  
NEW MARKET*    FAIR     N/A N/A N/A CALM      30.21F                  
STAUNTON*      SUNNY     86  63  47 CALM      30.27F                  
WAYNESBORO*    FAIR      85  58  39 E6        30.27S                  
$$
WVZ021-048>050-054>055-281900-
EASTERN WEST VIRGINIA PANHANDLE
  
CITY           SKY/WX    TMP DP  RH WIND       PRES   REMARKS
MARTINSBURG    SUNNY     87  66  49 S8        30.23F                  
PETERSBURG*    SUNNY     92  69  46 E3        30.21F HX  97           
$$
VAZ036>039-050-281900-
CENTRAL FOOTHILLS
  
CITY           SKY/WX    TMP DP  RH WIND       PRES   REMARKS
CHARLOTTESVILL SUNNY     89  65  44 SE8       30.23F HX  91           
CULPEPER*      SUNNY     88  68  52 NE3       30.23F HX  91           
ORANGE*          N/A     88  64  45 CALM      30.25F                  
GORDONSVILLE*  FAIR      88  66  48 S6        30.23S HX  90           
WARRENTON*     FAIR      88  60  38 CALM      30.23S                  
$$
VAZ055>057-281900-
NORTH AND CENTRAL PIEDMONT
  
CITY           SKY/WX    TMP DP  RH WIND       PRES   REMARKS
FREDERICKSBRG*   N/A     87  67  50 E6        30.21F                  
STAFFORD*      SUNNY     88  64  43 NE3       30.27S                  
$$
NCZ024-NYZ072-PAZ021-071-VAZ022-071-281900-
OTHER REGIONAL OBSERVATIONS
  
CITY           SKY/WX    TMP DP  RH WIND       PRES   REMARKS
NEW YORK CITY  SUNNY     87  60  40 VRB5      30.26F                  
PHILADELPHIA   MOSUNNY   88  62  41 S7        30.23F                  
PITTSBURGH     PTSUNNY   86  71  60 CALM      30.22F HX  91           
ROANOKE        SUNNY     87  64  46 S3        30.25F                  
RICHMOND       MOSUNNY   87  65  47 E6        30.21F                  
RALEIGH        MOSUNNY   87  66  49 E14       30.19F                  
$$
ANZ530>537-281900-
MARINE OBSERVATIONS
  
STATION/POSITION TIME  TEMP    WIND        PRES
                       AIR SEA DIR/SP/G
                 (UTC) (F)     (DEG/KT/KT) (MB)
THOMAS PT LIGHT  1800   80 83  360/  6/  7 1025.1S
BALT KEY BRIDGE  1748   80     130/  5/  7 1024.0F
COVE POINT       1748   79     350/  8/ 10 1024.0F
LEWISETTA        1748   80 84  100/  6/  8 1023.1F
SOLOMONS ISLAND  1748   81 85  130/  5/  6   N/A
PINEY POINT      1748          140/  7/  8   N/A
$$